[[{"header":{"parameterUnit":"m.s-1","parameterCategory":1,"la1":30.2991,"la2":30.254,"lo1":-89.0895,"lo2":-89.0444,"dy":0.0017,"dx":0.0017,"nx":28,"ny":28,"refTime":"2024-02-17T09:00:00:Z","depth":0,"parameterNumber":2,"parameterNumberName":"U-component_of_WINDS"},"data":[0,0,0,0,0,0,0,0,0,0,0,0,0,0,0,0,0,0,0,0,0,0,0,0,0,0,0,0,0,0,0,0,0,0,0,0,0,0,0,0,0,0,0,0,0,0,0,0,0,0,0,0,0,0,0,0,0,0,1.4461,1.4461,0,1.4498,1.4499,1.4499,1.4466,1.4464,1.4463,1.4462,1.4503,1.4506,1.4508,0,0,0,0,0,0,0,0,0,0,0,0,0,1.4365,1.4367,1.4461,1.4461,1.4462,1.4498,1.4499,1.4499,1.4466,1.4464,1.4463,1.4461,1.4502,1.4505,1.4508,0,0,0,0,0,0,0,0,0,0,0,0,0,1.4405,1.4367,1.4461,1.445,1.4449,1.4498,1.4499,1.4499,1.4466,1.4464,1.4462,1.446,1.4502,1.4505,1.4509,1.4571,0,0,1.4519,1.4521,0,0,0,0,0,0,0,0,1.4403,1.4408,1.4451,1.4451,1.445,1.4475,1.448,1.4524,1.4467,1.446,1.4462,1.4459,1.4496,1.45,1.4511,1.4573,1.4575,1.452,1.4522,1.4523,1.4524,0,0,0,0,0,0,0,1.44,1.4407,1.4476,1.4452,1.4451,1.4444,1.4447,1.4488,1.4489,1.446,1.4458,1.4463,1.4495,1.4508,1.4512,1.4576,1.452,1.4523,1.4525,1.4526,1.4692,1.4694,0,0,0,0,0,0,1.4398,1.4405,1.4475,1.4477,1.4421,1.4447,1.4451,1.4469,1.4488,1.4489,1.4464,1.4461,1.4503,1.4508,1.4513,1.4588,1.4523,1.4527,1.4529,1.469,1.4692,1.4695,0,0,0,0,0,0,1.4396,1.4404,1.4473,1.444,1.4448,1.4451,1.4472,1.4471,1.4484,1.4491,1.4492,1.4477,1.4501,1.4508,1.4557,1.4589,1.4528,1.4532,1.4687,1.469,1.4694,1.4739,0,0,0,0,0,0,1.4393,1.4404,1.4427,1.4441,1.445,1.4515,1.4474,1.4473,1.4489,1.4485,1.4503,1.4504,1.45,1.4552,1.4561,1.4593,1.4534,1.4684,1.4689,1.4693,1.4734,1.4743,1.4751,0,0,0,0,0,1.439,1.4439,1.4428,1.4437,1.4479,1.4517,1.4523,1.4516,1.4492,1.4516,1.4521,1.4504,1.4584,1.4557,1.4567,1.4601,1.4682,1.4687,1.4692,1.4731,1.4741,1.475,0,0,0,0,0,0,1.443,1.444,1.4429,1.4483,1.4499,1.4511,1.4541,1.4528,1.4552,1.4547,1.4539,1.4543,1.4594,1.4603,1.4572,1.4663,1.463,1.4637,1.4655,1.4666,1.4674,1.4671,1.4537,0,0,0,0,0,1.4445,1.4474,1.4482,1.4529,1.4538,1.4538,1.4555,1.4548,1.4565,1.4572,1.4581,1.4598,1.4628,1.4647,1.4675,1.4735,1.4739,1.4764,1.4772,1.4778,1.4785,1.4818,1.4829,1.4711,1.4711,1.4711,0,0,1.4476,1.4486,1.4505,1.4538,1.4549,1.4581,1.4544,1.4579,1.4602,1.4578,1.4624,1.4631,1.465,1.4705,1.473,1.4714,1.4818,1.4785,1.479,1.4793,1.4824,1.4835,1.4845,1.4715,1.4714,1.4714,0,0,1.4549,1.4559,1.46,1.4612,1.463,1.463,1.464,1.4654,1.4657,1.4703,1.4685,1.4714,1.4764,1.4779,1.4793,1.4873,1.4858,1.4882,1.4925,1.4957,1.4966,1.4974,1.5003,1.5013,1.4888,1.4888,1.4888,0,1.4586,1.4631,1.4623,1.4658,1.4674,1.4652,1.4693,1.4706,1.4733,1.4744,1.4726,1.4789,1.48,1.4858,1.4878,1.489,1.4902,1.488,1.4965,1.4974,1.4981,1.5008,1.5019,1.4891,1.4891,1.4891,1.489,0,1.4676,1.4708,1.4739,1.4764,1.4783,1.4822,1.4819,1.484,1.4832,1.4834,1.4882,1.4895,1.4925,1.4939,1.4932,1.4996,1.4985,1.4966,1.4933,1.4995,1.502,1.5031,1.4895,1.4894,1.4893,1.4893,0,0,1.4775,1.4794,1.4806,1.4817,1.4835,1.486,1.4899,1.4926,1.4944,1.4964,1.4996,1.5039,1.5022,1.5038,1.5033,1.5061,1.5123,1.5038,1.5039,1.5054,1.5195,1.5209,1.5221,1.5114,1.5116,1.5117,1.5194,0,1.4848,1.4913,1.4907,1.4969,1.4998,1.4979,1.5012,1.5027,1.5031,1.5058,1.5062,1.5093,1.5067,1.5077,1.5104,1.511,1.5151,1.5104,1.5144,1.5146,1.5139,1.5234,1.5249,1.5321,1.5203,1.5205,1.5206,0,1.4943,1.4964,1.5029,1.5043,1.5055,1.5085,1.511,1.5136,1.5154,1.5154,1.5172,1.5162,1.5202,1.5168,1.5222,1.519,1.5207,1.5212,1.5215,1.5218,1.5179,1.524,1.5343,1.5354,1.5222,1.5221,1.5219,0,1.5008,1.5053,1.5098,1.5108,1.5126,1.5147,1.5156,1.5171,1.5189,1.5211,1.5223,1.525,1.5265,1.5288,1.5286,1.5261,1.5342,1.5307,1.5344,1.5344,1.5361,1.536,1.5468,1.5372,1.5372,1.5372,1.5372,0,1.509,1.5131,1.5127,1.5155,1.52,1.5192,1.5238,1.5244,1.5258,1.5287,1.5272,1.53,1.5296,1.5324,1.5324,1.5369,1.5376,1.5378,1.5378,1.538,1.5379,1.539,1.5385,1.5375,1.5374,1.5374,1.5373,0,1.517,1.5169,1.5217,1.5229,1.5234,1.5266,1.5278,1.5304,1.5307,1.5344,1.5352,1.5356,1.5389,1.5389,1.5427,1.5426,1.5482,1.5476,1.5476,1.5474,1.5511,1.5507,1.5629,1.5645,1.5539,1.554,1.5541,0,1.5223,1.5253,1.5269,1.5287,1.5297,1.5326,1.5343,1.5338,1.5357,1.538,1.5404,1.5435,1.5459,1.5512,1.552,1.5548,1.5543,1.5584,1.5547,1.5548,1.5543,1.5541,1.5544,1.5591,1.5592,1.5593,1.5593,0,1.5316,1.5314,1.5339,1.5365,1.5386,1.5406,1.5424,1.544,1.5437,1.5459,1.5492,1.5511,1.5549,1.558,1.5608,1.5618,1.5606,1.5605,1.5615,1.5617,1.5615,1.5617,1.5495,1.5602,1.5601,1.5601,1.56,1.56,1.5384,1.541,1.5425,1.5454,1.5467,1.5485,1.551,1.5515,1.5542,1.5572,1.5568,1.5604,1.5622,1.5658,1.5671,1.57,1.5686,1.57,1.5704,1.5707,1.5711,1.5611,1.5705,1.5705,1.5705,1.5704,1.5704,0,1.5476,1.5484,1.5511,1.5537,1.556,1.5545,1.5565,1.5586,1.5617,1.5635,1.5659,1.5697,1.5727,1.5737,1.5766,1.5788,1.5783,1.5796,1.5794,1.5797,1.5722,1.571,1.5799,1.5799,1.5799,1.5799,1.5799,1.5799,1.5526,1.557,1.557,1.562,1.5629,1.5664,1.5677,1.5693,1.5707,1.5749,1.5774,1.578,1.5794,1.5825,1.5852,1.5855,1.5866,1.5882,1.5881,1.5812,1.5802,1.5793,1.5782,1.5884,1.5884,1.5953,1.5954,1.5954]},{"header":{"parameterUnit":"m.s-1","parameterCategory":1,"la1":30.2991,"la2":30.254,"lo1":-89.0895,"lo2":-89.0444,"dy":0.0017,"dx":0.0017,"nx":28,"ny":28,"refTime":"2024-02-17T09:00:00:Z","depth":0,"parameterNumber":3,"parameterNumberName":"V-component_of_WINDS"},"data":[0,0,0,0,0,0,0,0,0,0,0,0,0,0,0,0,0,0,0,0,0,0,0,0,0,0,0,0,0,0,0,0,0,0,0,0,0,0,0,0,0,0,0,0,0,0,0,0,0,0,0,0,0,0,0,0,0,0,0.9857,0.9857,0,0.9878,0.9878,0.9879,0.9875,0.9874,0.9874,0.9874,0.9893,0.9894,0.9895,0,0,0,0,0,0,0,0,0,0,0,0,0,0.9812,0.9812,0.9857,0.9857,0.9858,0.9878,0.9878,0.9879,0.9875,0.9874,0.9874,0.9873,0.9893,0.9894,0.9895,0,0,0,0,0,0,0,0,0,0,0,0,0,0.9832,0.9813,0.9857,0.9858,0.9858,0.9878,0.9878,0.9879,0.9875,0.9874,0.9874,0.9873,0.9892,0.9894,0.9895,0.9914,0,0,0.9899,0.9899,0,0,0,0,0,0,0,0,0.9831,0.9833,0.9858,0.9858,0.9859,0.9873,0.987,0.9891,0.9875,0.9869,0.9874,0.9873,0.9887,0.9888,0.9894,0.9915,0.9916,0.9899,0.99,0.99,0.9901,0,0,0,0,0,0,0,0.9829,0.9833,0.9865,0.9858,0.9859,0.9857,0.9859,0.9873,0.988,0.9869,0.9869,0.9872,0.9887,0.9892,0.9894,0.9916,0.9899,0.99,0.9901,0.9901,0.9954,0.9955,0,0,0,0,0,0,0.9828,0.9831,0.9865,0.9866,0.9843,0.9858,0.9861,0.9869,0.988,0.9882,0.9872,0.9871,0.989,0.9892,0.9895,0.9918,0.99,0.9902,0.9902,0.9954,0.9954,0.9955,0,0,0,0,0,0,0.9827,0.9831,0.9864,0.9849,0.9853,0.986,0.9869,0.987,0.9875,0.9883,0.9884,0.9876,0.989,0.9893,0.9909,0.9918,0.9902,0.9903,0.9953,0.9954,0.9955,0.9964,0,0,0,0,0,0,0.9826,0.983,0.9838,0.9849,0.9854,0.9879,0.987,0.9871,0.9878,0.9877,0.9887,0.9888,0.989,0.9908,0.9911,0.992,0.9904,0.9952,0.9953,0.9954,0.9963,0.9965,0.9967,0,0,0,0,0,0.9824,0.9839,0.9839,0.9843,0.9863,0.9879,0.9882,0.9884,0.9879,0.9886,0.9891,0.9888,0.9917,0.9909,0.9913,0.9922,0.9951,0.9953,0.9954,0.9962,0.9965,0.9967,0,0,0,0,0,0,0.9829,0.9841,0.984,0.986,0.9869,0.9879,0.9888,0.9887,0.9897,0.9896,0.9898,0.99,0.9917,0.9921,0.9913,0.9942,0.9933,0.9936,0.9938,0.9941,0.9943,0.9941,0.9905,0,0,0,0,0,0.9832,0.9845,0.9854,0.9871,0.9875,0.9881,0.9888,0.9889,0.9898,0.9902,0.9908,0.9916,0.9927,0.9934,0.9945,0.9964,0.9966,0.9972,0.9974,0.9976,0.9978,0.9988,0.9991,0.996,0.996,0.996,0,0,0.9839,0.9847,0.9855,0.9872,0.9879,0.9891,0.9884,0.9897,0.9906,0.9903,0.992,0.9924,0.9934,0.9952,0.996,0.9956,0.9987,0.9978,0.9979,0.998,0.999,0.9993,0.9995,0.9961,0.996,0.996,0,0,0.9858,0.9866,0.988,0.9888,0.9899,0.9903,0.9906,0.9917,0.992,0.9936,0.9935,0.9945,0.9964,0.9971,0.9977,0.9999,0.9997,1.0003,1.0013,1.0023,1.0026,1.0028,1.0035,1.0038,1.0004,1.0004,1.0004,0,0.9865,0.9884,0.9887,0.9901,0.9909,0.9908,0.9922,0.9929,0.9943,0.9947,0.9943,0.9967,0.9974,0.9993,0.9999,1.0004,1.0007,1.0001,1.0025,1.0027,1.0029,1.0037,1.004,1.0005,1.0005,1.0005,1.0005,0,0.9892,0.9905,0.9916,0.993,0.9938,0.9952,0.9957,0.9966,0.9966,0.997,0.9987,0.9995,1.0007,1.0012,1.0012,1.0032,1.0029,1.0025,1.0016,1.0033,1.004,1.0043,1.0006,1.0006,1.0005,1.0005,0,0,0.9913,0.993,0.9934,0.994,0.9953,0.9963,0.9977,0.999,0.9997,1.0006,1.0018,1.0034,1.0031,1.0038,1.0039,1.0048,1.0065,1.0043,1.0043,1.0046,1.0086,1.0089,1.0092,1.0064,1.0064,1.0065,1.0085,0,0.9933,0.9958,0.9962,0.9984,0.9996,0.9996,1.0008,1.0017,1.0021,1.0032,1.0037,1.0048,1.0043,1.0047,1.0056,1.0061,1.0073,1.006,1.0073,1.0074,1.0071,1.0096,1.0098,1.0117,1.0088,1.0089,1.0089,0,0.9959,0.9971,0.9994,1.0006,1.0011,1.0022,1.0034,1.0044,1.0054,1.0057,1.0065,1.0065,1.0079,1.0071,1.009,1.0081,1.0087,1.009,1.0091,1.0091,1.0082,1.0097,1.0124,1.0126,1.0093,1.0093,1.0093,0,0.9972,0.9993,1.001,1.0016,1.003,1.0037,1.0043,1.0053,1.006,1.0071,1.0076,1.0088,1.0094,1.0103,1.0106,1.01,1.0125,1.0117,1.0126,1.0126,1.0131,1.0131,1.0159,1.0136,1.0136,1.0136,1.0136,0,0.9993,1.0008,1.0016,1.0027,1.0043,1.0047,1.0062,1.0068,1.0076,1.0087,1.0088,1.0098,1.0102,1.0113,1.0115,1.013,1.0133,1.0135,1.0136,1.0135,1.0135,1.0138,1.0137,1.0137,1.0136,1.0136,1.0136,0,1.001,1.0016,1.0035,1.0047,1.005,1.0061,1.0071,1.0081,1.0086,1.01,1.0103,1.011,1.0123,1.0128,1.0143,1.0144,1.0162,1.0161,1.0159,1.0159,1.0168,1.0167,1.0199,1.0204,1.0178,1.0179,1.0179,0,1.0023,1.0034,1.0048,1.0056,1.0062,1.0075,1.0083,1.0087,1.0096,1.0108,1.0116,1.0129,1.014,1.016,1.0166,1.0177,1.0177,1.0187,1.0178,1.0177,1.0176,1.0176,1.0177,1.0189,1.0189,1.0189,1.0189,0,1.0045,1.0048,1.006,1.0073,1.0083,1.0094,1.0104,1.011,1.0116,1.0125,1.0139,1.0147,1.0163,1.0175,1.0188,1.0193,1.0192,1.0192,1.0195,1.0194,1.0192,1.0193,1.0163,1.0191,1.0191,1.0191,1.0191,1.0191,1.0059,1.0069,1.0081,1.0094,1.0103,1.0113,1.0122,1.0129,1.0141,1.0155,1.0157,1.0171,1.0181,1.0197,1.0203,1.0214,1.0211,1.0215,1.0216,1.0217,1.0217,1.0191,1.0216,1.0216,1.0216,1.0216,1.0216,0,1.0081,1.0089,1.0101,1.0116,1.0127,1.0126,1.0138,1.0146,1.0159,1.0169,1.018,1.0195,1.0207,1.0215,1.0227,1.0234,1.0234,1.0237,1.0237,1.0238,1.022,1.0216,1.0237,1.0237,1.0237,1.0237,1.0237,1.0237,1.0093,1.011,1.0115,1.0136,1.0143,1.0158,1.0165,1.0173,1.0181,1.0199,1.021,1.0215,1.0224,1.0237,1.0248,1.025,1.0254,1.0257,1.0259,1.0241,1.0239,1.0237,1.0233,1.0258,1.0258,1.0276,1.0276,1.0276]}]]